Regional Weather Roundup
Issued by NWS

Home | Current Version | Previous Version | Graphics & Text | Print | Product List | Glossary On
Versions: 1 2 3 4 5 6 7 8 9 10 11 12 13 14 15 16 17 18 19 20 21 22 23 24 25 26 27 28 29 30 31 32 33 34 35 36 37 38 39 40 41 42 43 44 45 46 47 48 49 50
000
ASUS43 KDTX 030201
RWRMI
MICHIGAN HOURLY REGIONAL WEATHER ROUNDUP
NATIONAL WEATHER SERVICE DETROIT/PONTIAC MI
1000 PM EDT TUE JUN 02 2015

NOTE: "FAIR" INDICATES FEW OR NO CLOUDS BELOW 12,000 FEET WITH NO
SIGNIFICANT WEATHER AND/OR OBSTRUCTION TO VISIBILITY.

MIZ047>049-052>055-059>063-066>070-074>076-081>083-030300-
SOUTHEAST LOWER MICHIGAN

CITY           SKY/WX    TMP DP  RH WIND       PRES   REMARKS
ADRIAN         CLEAR     57  45  64 E5        30.16R
ALMA           CLEAR     57  47  69 NE6       30.14R
ANN ARBOR      CLEAR     54  49  83 CALM      30.16R
BAD AXE        CLEAR     53  33  46 E3        30.17R
CARO           CLEAR     50  46  85 CALM      30.15R
DETROIT CITY   PTCLDY    59  50  72 SE5       30.17R
DETROIT        PTCLDY    61  47  59 E3        30.17R
FLINT          CLEAR     58  43  57 SE6       30.14R
GROSSE ILE     PTCLDY    59  46  63 E3        30.15R
HILLSDALE      CLEAR     57  43  59 SE3       30.15S
HOWELL         CLEAR     59  47  64 S6        30.15R

CITY           SKY/WX    TMP DP  RH WIND       PRES   REMARKS
JACKSON        CLEAR     56  45  66 SE7       30.15R
LAMBERTVILLE   CLEAR     57  46  67 CALM      30.15S
LANSING        CLEAR     63  45  51 S6        30.13R
LAPEER         FAIR      57  48  71 CALM      30.16R
MASON          CLEAR     55  48  76 S6        30.14R
MONROE         CLEAR     55  46  71 E5        30.14R
MT. CLEMENS    PTCLDY    57  51  80 SE8       30.15R
PONTIAC        PTCLDY    62  51  67 SE6       30.15R
PORT HOPE        N/A     54  42  64 E6        30.16R
PORT HURON     PTCLDY    50  45  81 CALM      30.18R
TRI CITIES     CLEAR     57  45  64 NE6       30.16R
MIDLAND        FAIR      55  40  58 E5        30.14R
TROY           CLEAR     62  50  66 CALM      30.18R
SAGINAW HB     CLEAR     59  45  58 CALM      30.14R
$$
MIZ043>046-050>051-056>058-064>065-071>073-077>080-030300-
SOUTHWEST LOWER MICHIGAN

CITY           SKY/WX    TMP DP  RH WIND       PRES   REMARKS
BATTLE CREEK   CLEAR     64  49  57 SE7       30.13R
BENTON HARBOR  CLEAR     53  45  74 CALM      30.11R
BIG RAPIDS     PTCLDY    59  43  56 CALM      30.12R
COLDWATER      CLEAR     57  44  60 SE7       30.14R
FREMONT        FAIR      59  44  56 N3        30.12R
HOLLAND        CLEAR     56  49  77 NW3       30.11S
GRAND RAPIDS   PTCLDY    62  50  64 E5        30.11S
IONIA          FAIR      60  49  68 E3        30.11S
KALAMAZOO      CLEAR     63  50  62 SE3       30.12R
LUDINGTON      CLEAR     51  38  62 CALM      30.12S
MARSHALL       CLEAR     60  46  58 SE5       30.13R
MOUNT PLEASANT CLEAR     57  46  66 CALM      30.14R
MUSKEGON       MOCLDY    56  44  64 N7        30.12R
SOUTH HAVEN    CLEAR     54  46  75 CALM      30.11S
$$
MIZ016>042-030300-
NORTHERN LOWER MICHIGAN

CITY           SKY/WX    TMP DP  RH WIND       PRES   REMARKS
ALPENA         LGT RAIN  55  37  50 S3        30.14S
BEAVER ISLAND  CLEAR     48  39  72 CALM      30.12S
BELLAIRE       PTCLDY    54  43  67 S3        30.13R
CADILLAC       CLEAR     58  41  52 NW3       30.13R
CHARLEVOIX     PTCLDY    50  39  64 W3        30.15R
FRANKFORT      CLEAR     50  37  62 CALM      30.12S
GAYLORD        CLEAR     61  41  47 SW5       30.13R
GRAYLING       CLEAR     58  38  47 CALM      30.14R
HARBOR SPRINGS CLEAR     49  42  75 CALM      30.11S
HOUGHTON LAKE  CLEAR     57  41  55 SE6       30.14R
MANISTEE       CLEAR     50  41  71 CALM      30.13F
OSCODA         CLEAR     55  37  52 CALM      30.15S
PELLSTON       CLEAR     52  40  63 CALM      30.11S
ROGERS CITY    CLEAR     57  36  45 SE6       30.13S
TRAVERSE CITY  PTCLDY    52  42  69 CALM      30.12S
$$
MIZ007>008-015-030300-
EASTERN UPPER MICHIGAN

CITY           SKY/WX    TMP DP  RH WIND       PRES   REMARKS
KINROSS        CLEAR     55  34  44 SE3       30.12S
MACKINAC ISLAN CLEAR     50  38  62 E8        30.10F
NEWBERRY       PTCLDY    52  36  55 S5        30.10S
S. S. MARIE    PTCLDY    57  33  40 SE6       30.12R
$$
MIZ004>006-011>014-085-030300-
CENTRAL UPPER MICHIGAN

CITY           SKY/WX    TMP DP  RH WIND       PRES   REMARKS
MANISTIQUE     CLEAR     45  39  80 SE5       30.09F
ESCANABA       CLEAR     54  46  76 SE3       30.07S
MENOMINEE      CLEAR     59  37  44 S7        30.06F
SAWYER-GWINN   CLEAR     59  41  51 S12       30.05R
$$
MIZ001>003-009>011-084-030300-
WESTERN UPPER MICHIGAN

CITY           SKY/WX    TMP DP  RH WIND       PRES   REMARKS
IRON MOUNTAIN  CLEAR     61  42  49 S9        30.04S
HOUGHTON       MOCLDY    58  36  43 NE3       29.97S
COPPER HARBOR    N/A     57  39  51 SW8       29.96F
IRONWOOD       PTCLDY    66  41  39 S6        29.95S
$$

ABBREVIATIONS USED IN REMARKS
   TC - TEMPERATURE IN CELSIUS
  WCI - WIND CHILL INDEX
   HX - HEAT INDEX
  VSB - VISIBILITY




USA.gov is the U.S. government's official web portal to all federal, state and local government web resources and services.